Weather Roundup
Issued by NWS

Home | Current Version | Previous Version | Text Only | Print | Product List | Glossary On
Versions: 1 2 3 4 5 6 7 8 9 10 11 12 13 14 15 16 17 18 19 20 21 22 23 24 25 26 27 28 29 30 31 32 33 34 35 36 37 38 39 40 41 42 43 44 45 46 47 48 49 50
584
NZUS93 KARX 110210
HRRWXR

CURRENT HOURLY OBSERVATIONS ACROSS
MUCH OF THE UPPER MISSISSIPPI VALLEY
NATIONAL WEATHER SERVICE LA CROSSE WI
800 PM CST SUN DEC 10 2017


...SOUTHEAST MINNESOTA...


CITY           SKY/WX    TMP DP  RH WIND       PRES   REMARKS
ROCHESTER      CLOUDY    24  20  84 W5        30.02F WCI  18
ROCHESTER/MAYO FAIR      28  22  78 W3        30.04F
WINONA         CLOUDY    30  21  69 NW3       30.08R
AUSTIN         CLOUDY    25  21  86 CALM      30.04F
ALBERT LEA     CLOUDY    27  21  80 CALM      30.04F
DODGE CENTER   CLOUDY    19  18  93 CALM      30.03F
PRESTON        CLOUDY    26  20  79 NW3       30.05R
OWATONNA       NOT AVBL
FARIBAULT      CLOUDY    19  18  93 CALM      30.04F
$$

...ELSEWHERE IN MINNESOTA...


CITY           SKY/WX    TMP DP  RH WIND       PRES   REMARKS
MINNEAPOLIS    MOCLDY    27  21  78 S5        30.03F WCI  22
INTNL FALLS    CLOUDY     4  -1  80 CALM      29.94R
DULUTH         MOCLDY    11   9  92 SE3       29.95F
RED WING       CLOUDY    19  16  86 CALM      30.04F
REDWOOD FALLS  CLOUDY    32  25  75 S5        30.01F WCI  27
MANKATO        MOCLDY    27  23  85 SE6       30.04F WCI  20
WORTHINGTON    CLOUDY    34  28  79 SW7       30.02F WCI  28
FAIRMONT       CLOUDY    31  27  85 S3        30.05F
$$

...SOUTHWEST WISCONSIN...


CITY           SKY/WX    TMP DP  RH WIND       PRES   REMARKS
LA CROSSE      CLOUDY    28  20  71 CALM      30.07S
PRAIRIE DU CHI CLOUDY    26  19  76 CALM      30.09S
BOSCOBEL       CLOUDY    29  19  66 N5        30.09S WCI  24
LONE ROCK      CLOUDY    27  21  78 W3        30.09R
PLATTEVILLE    CLEAR     26  21  83 NW6       30.07S WCI  19
FORT MC COY    CLOUDY    24  20  85 CALM      30.06F
CAMP DOUGLAS   CLOUDY    24  18  76 CALM      30.06R
MAUSTON-NEW LI CLOUDY    25  19  78 NW3       30.05S
VIROQUA        CLOUDY    25  21  86 NW3       30.04F
WIS DELLS      CLOUDY    26  18  71 NW3       30.05S
$$

...ELSEWHERE IN WISCONSIN...


CITY           SKY/WX    TMP DP  RH WIND       PRES   REMARKS
MILWAUKEE      CLOUDY    28  18  66 NW7       30.06R WCI  21
MADISON        CLOUDY    26  18  71 NW5       30.06R WCI  20
GREEN BAY      CLOUDY    25  16  68 N6        30.05R WCI  18
EAU CLAIRE     CLOUDY    17  15  92 CALM      30.04S
BLACK RVR FLS  CLOUDY    24  19  78 CALM      30.05S
MEDFORD        CLOUDY    18  11  76 CALM      30.00S
WAUSAU         CLOUDY    21  12  68 VRB7      30.01S WCI  12
WIS RAPIDS     CLOUDY    24  15  68 NW6       30.06R WCI  17
MARSHFIELD     CLOUDY    21  15  78 NW5       30.02R WCI  15
RICE LAKE      FOG       13  12  95 CALM      30.03F VSB 1/2
$$

...NORTHEAST IOWA...


CITY           SKY/WX    TMP DP  RH WIND       PRES   REMARKS
WATERLOO       CLOUDY    27  21  78 CALM      30.09R
DUBUQUE        CLEAR     24  20  84 N3        30.07R
DECORAH        CLOUDY    27  21  80 CALM      30.06R
MASON CITY     CLOUDY    29  22  75 CALM      30.06F
CHARLES CITY   CLOUDY    25  23  93 N5        30.07R WCI  19
OELWEIN        CLOUDY    25  23  93 CALM      30.08R
$$

...ELSEWHERE IN IOWA...


CITY           SKY/WX    TMP DP  RH WIND       PRES   REMARKS
DES MOINES     PTCLDY    39  25  57 VRB5      30.09S
IOWA CITY      MOCLDY    26  19  74 CALM      30.11R
FORT DODGE     CLOUDY    30  23  75 CALM      30.07F
MARSHALLTOWN   CLOUDY    31  23  72 NW5       30.08R WCI  26
CEDAR RAPIDS   CLOUDY    28  21  75 N3        30.08R
$$

...NORTHERN ILLINOIS...


CITY           SKY/WX    TMP DP  RH WIND       PRES   REMARKS
CHICAGO-OHARE  CLOUDY    30  19  63 NW8       30.06R WCI  22
CHICAGO-MIDWAY CLOUDY    31  20  63 N10       30.07R WCI  22
MOLINE         CLEAR     27  21  78 CALM      30.10R
ROCKFORD       MOCLDY    26  19  74 NW6       30.09R WCI  19
PEORIA         CLEAR     31  22  69 CALM      30.11R
$$

NOTE: "FAIR" INDICATES FEW OR NO CLOUDS BELOW 12,000 FEET WITH NO
SIGNIFICANT WEATHER AND/OR OBSTRUCTIONS TO VISIBILITY. WIND
SPEEDS ARE IN MILES-PER-HOUR.




USA.gov is the U.S. government's official web portal to all federal, state and local government web resources and services.